Location: Auckland
(36.8670°S, 174.7670°E)
Time: 16:19:49
(UTC+12:00)

ISS - Visible Passes

Search period start: 16 July 2025 00:00
Search period end: 26 July 2025 00:00
Orbit: 413 x 417 km, 51.6° (Epoch: 16 July)

Date Brightness Start Highest point End Pass type
(mag) Time Alt. Az. Time Alt. Az. Time Alt. Az.
16 Jul -2.0 05:30:21 28° NNE 05:31:05 31° NE 05:34:08 10° ESE visible
17 Jul -0.1 04:44:31 10° E 04:44:31 10° E 04:44:36 10° E visible
17 Jul -3.3 06:17:27 28° W 06:18:47 43° SW 06:22:04 10° SE visible
18 Jul -2.3 05:31:14 32° SE 05:31:14 32° SE 05:33:14 10° SE visible
19 Jul -2.1 06:17:40 20° SSW 06:17:49 20° SSW 06:20:24 10° SSE visible
20 Jul -1.2 05:31:00 15° SSE 05:31:00 15° SSE 05:31:44 10° SSE visible
21 Jul -1.3 06:17:05 11° SSW 06:17:05 11° SSW 06:18:09 10° S visible
